Tracking 18957 objects as of 23-Jan-2018
HD Live streaming from Space Station
objects crossing your sky now

FLOCK 2P 6

Track FLOCK 2P 6 now!
10-day predictions
FLOCK 2P 6 is classified as:


NORAD ID: 41606
Int'l Code: 2016-040H
Perigee: 493.8 km
Apogee: 509.0 km
Inclination: 97.4 °
Period: 94.5 minutes
Semi major axis: 6872 km
RCS: Unknown
Launch date: June 22, 2016
Source: (TBD)
Launch site: SRIHARIKOTA (SRI)

Note: This is a ROCKET BODY
aabbcc
Your satellite tracking list
Your tracking list is empty




NASA's NSSDC Master Catalog

Two Line Element Set (TLE):
1 41606U 16040H   18023.14166269  .00002170  00000-0  92835-4 0  9998
2 41606  97.4327  89.0107 0011052  32.0206 328.1701 15.23851179 88187
Source of the keplerian elements: AFSPC